[[{"header":{"parameterUnit":"m.s-1","parameterCategory":1,"la1":30.2992,"la2":30.254,"lo1":-89.0895,"lo2":-89.0443,"dy":0.0025,"dx":0.0025,"nx":19,"ny":19,"refTime":"2026-04-30T21:00:00:Z","depth":0,"parameterNumber":2,"parameterNumberName":"U-component_of_WINDS"},"data":[0,0,0,-3.6983,-3.6987,-3.7185,-3.7186,-3.7453,-3.7455,0,0,0,0,0,0,0,0,0,0,0,-3.6933,-3.6936,-3.6982,-3.6987,-3.7185,-3.7186,-3.7452,-3.7455,0,0,0,0,0,0,0,0,0,0,0,-3.6932,-3.6935,-3.6938,-3.6988,-3.7185,-3.7186,-3.7451,-3.7297,0,0,0,0,0,0,0,0,0,0,-3.7102,-3.7067,-3.6934,-3.6938,-3.6989,-3.7185,-3.7186,-3.7289,-3.7307,-3.7369,0,-3.7429,0,-3.7446,-3.7474,-3.7475,0,0,0,-3.698,-3.7052,-3.7097,-3.6938,-3.6991,-3.7185,-3.7094,-3.7299,-3.7318,-3.7392,-3.7432,-3.7442,-3.7451,-3.7476,-3.7477,-3.7868,-3.787,0,0,-3.6969,-3.6974,-3.7084,-3.711,-3.7083,-3.7088,-3.71,-3.731,-3.7354,-3.7433,-3.7448,-3.7455,-3.7478,-3.748,-3.7866,-3.7868,0,0,0,-3.6943,-3.6967,-3.7006,-3.71,-3.7135,-3.7093,-3.7108,-3.7344,-3.7357,-3.745,-3.7458,-3.7479,-3.7483,-3.7863,-3.7867,-3.7981,0,0,0,-3.6936,-3.6951,-3.7002,-3.7007,-3.7131,-3.7242,-3.7138,-3.7342,-3.7366,-3.7457,-3.7479,-3.7485,-3.7861,-3.7865,-3.7973,-3.8034,0,0,0,-3.6917,-3.6949,-3.6981,-3.7006,-3.7092,-3.7239,-3.7263,-3.7347,-3.7371,-3.7475,-3.7486,-3.7859,-3.7864,-3.7966,-3.8022,-3.814,0,0,0,-3.6898,-3.7078,-3.6983,-3.7187,-3.7091,-3.7309,-3.7262,-3.7424,-3.7526,-3.7481,-3.7861,-3.7866,-3.7963,-3.8015,-3.8132,-3.824,-3.8285,0,0,-3.7128,-3.7106,-3.7226,-3.7146,-3.7383,-3.7278,-3.7531,-3.7619,-3.7623,-3.7785,-3.7795,-3.7976,-3.8021,-3.8138,-3.8538,-3.8574,0,0,0,-3.7301,-3.7387,-3.7448,-3.7548,-3.7621,-3.7688,-3.7737,-3.777,-3.7908,-3.7708,-3.8049,-3.8076,-3.8144,-3.8196,-3.8227,-3.8285,-3.789,-3.789,-3.7889,-3.7633,-3.763,-3.7829,-3.7851,-3.7947,-3.7997,-3.8075,-3.8127,-3.8094,-3.8175,-3.8223,-3.8466,-3.8527,-3.855,-3.861,-3.8279,-3.828,-3.828,-3.8281,-3.797,-3.8092,-3.8047,-3.8223,-3.8218,-3.8365,-3.842,-3.8392,-3.8528,-3.8429,-3.8489,-3.8382,-3.859,-3.8642,-3.8289,-3.8288,-3.8287,-3.8286,-3.8285,-3.8188,-3.8246,-3.8284,-3.8428,-3.8539,-3.8554,-3.8688,-3.8678,-3.867,-3.8729,-3.8779,-3.8777,-3.8774,-3.8754,-3.8754,-3.8755,-3.8756,-3.8757,-3.8757,-3.8398,-3.8438,-3.8553,-3.8647,-3.871,-3.8792,-3.8844,-3.8905,-3.897,-3.8953,-3.8953,-3.8912,-3.8611,-3.8535,-3.877,-3.8768,-3.8766,-3.8765,-3.8764,-3.8742,-3.8663,-3.884,-3.8904,-3.9014,-3.9125,-3.9112,-3.9238,-3.9286,-3.9352,-3.93,-3.9078,-3.9054,-3.9029,-3.8967,-3.93,-3.93,-3.93,-3.93,-3.8926,-3.8913,-3.9093,-3.9195,-3.9294,-3.9301,-3.95,-3.9542,-3.9573,-3.9603,-3.9554,-3.947,-3.9445,-3.9436,-3.9402,-3.9344,-3.9765,-3.9765,-3.9766,-3.9137,-3.9134,-3.9306,-3.9338,-3.9423,-3.9496,-3.9683,-3.9801,-3.9819,-3.9784,-3.9626,-3.9607,-3.9471,-3.9427,-3.9388,-3.9337,-3.9229,0,0]},{"header":{"parameterUnit":"m.s-1","parameterCategory":1,"la1":30.2992,"la2":30.254,"lo1":-89.0895,"lo2":-89.0443,"dy":0.0025,"dx":0.0025,"nx":19,"ny":19,"refTime":"2026-04-30T21:00:00:Z","depth":0,"parameterNumber":3,"parameterNumberName":"V-component_of_WINDS"},"data":[0,0,0,-3.6359,-3.6361,-3.6427,-3.6427,-3.6528,-3.6529,0,0,0,0,0,0,0,0,0,0,0,-3.6351,-3.6352,-3.6359,-3.6361,-3.6427,-3.6427,-3.6528,-3.6529,0,0,0,0,0,0,0,0,0,0,0,-3.635,-3.6352,-3.6353,-3.6361,-3.6427,-3.6427,-3.6527,-3.6471,0,0,0,0,0,0,0,0,0,0,-3.6404,-3.6409,-3.6352,-3.6353,-3.6361,-3.6427,-3.6427,-3.6468,-3.6475,-3.6506,0,-3.6538,0,-3.6535,-3.6537,-3.6537,0,0,0,-3.6351,-3.6403,-3.6411,-3.6353,-3.6362,-3.6427,-3.6394,-3.6472,-3.6479,-3.6514,-3.6539,-3.6542,-3.6537,-3.6538,-3.6538,-3.6751,-3.6753,0,0,-3.6348,-3.6369,-3.6406,-3.6416,-3.6409,-3.6392,-3.6396,-3.6476,-3.6503,-3.6539,-3.6544,-3.6538,-3.6538,-3.6539,-3.675,-3.6752,0,0,0,-3.6344,-3.6367,-3.6372,-3.6413,-3.6423,-3.6394,-3.6399,-3.65,-3.65,-3.6545,-3.654,-3.6539,-3.6541,-3.6748,-3.675,-3.6844,0,0,0,-3.6341,-3.6364,-3.6371,-3.6384,-3.6422,-3.6463,-3.6422,-3.6494,-3.6502,-3.6539,-3.6539,-3.6542,-3.6747,-3.6749,-3.6838,-3.6884,0,0,0,-3.6343,-3.6364,-3.6378,-3.6385,-3.6414,-3.6461,-3.6465,-3.6495,-3.65,-3.6537,-3.6542,-3.6746,-3.6749,-3.6832,-3.6876,-3.6948,0,0,0,-3.635,-3.6458,-3.638,-3.6498,-3.6414,-3.6518,-3.6464,-3.654,-3.6583,-3.654,-3.6747,-3.675,-3.6831,-3.687,-3.6943,-3.7015,-3.7047,0,0,-3.6498,-3.6477,-3.6544,-3.6476,-3.66,-3.6506,-3.6643,-3.6661,-3.6644,-3.6716,-3.6721,-3.684,-3.6875,-3.6947,-3.7212,-3.7238,0,0,0,-3.6599,-3.6648,-3.6676,-3.6719,-3.6737,-3.6756,-3.6752,-3.6758,-3.6819,-3.6686,-3.6884,-3.6904,-3.6945,-3.6979,-3.7001,-3.7035,-3.6766,-3.6766,-3.6765,-3.6839,-3.6813,-3.6924,-3.6907,-3.6949,-3.6943,-3.6975,-3.6983,-3.6943,-3.699,-3.7012,-3.7176,-3.7216,-3.7232,-3.7269,-3.7046,-3.7046,-3.7046,-3.7047,-3.7055,-3.7122,-3.7067,-3.7155,-3.7127,-3.72,-3.7198,-3.7167,-3.7231,-3.7157,-3.7192,-3.7117,-3.7261,-3.7292,-3.7053,-3.7052,-3.7051,-3.7051,-3.705,-3.7212,-3.724,-3.7247,-3.7307,-3.7356,-3.7332,-3.7397,-3.7367,-3.7339,-3.7374,-3.7395,-3.7393,-3.7389,-3.7385,-3.7386,-3.7387,-3.7387,-3.7387,-3.7388,-3.7373,-3.7378,-3.7437,-3.7465,-3.7489,-3.7517,-3.7512,-3.7535,-3.7552,-3.7525,-3.7525,-3.7481,-3.7279,-3.7231,-3.7397,-3.7395,-3.7394,-3.7393,-3.7392,-3.7606,-3.7549,-3.764,-3.7664,-3.7695,-3.7746,-3.7707,-3.7755,-3.7769,-3.7802,-3.7749,-3.7605,-3.758,-3.7563,-3.7523,-3.7754,-3.7754,-3.7754,-3.7754,-3.774,-3.7724,-3.7812,-3.7853,-3.7889,-3.7863,-3.7966,-3.7963,-3.795,-3.7957,-3.7919,-3.7862,-3.7845,-3.7831,-3.7808,-3.777,-3.8059,-3.8059,-3.8059,-3.7883,-3.7869,-3.7964,-3.7953,-3.7974,-3.7993,-3.809,-3.8138,-3.8111,-3.8071,-3.7963,-3.795,-3.7857,-3.7828,-3.7788,-3.7753,-3.7682,0,0]}]]